sat.trackr.live / text

‹ back to catalog

GLOBALSTAR M076

NORAD 37190 · 2010-054C

PAYLOAD ACTIVE UNKNOWN

§ Identity

Operator
Country
GLOB
Launch date
2010-10-19
Launch site
TYMSC
Launch vehicle
Mass (kg)
RCS (m²)
4.58

Purposes: comms

External: N2YO · Heavens-Above · Gunter

§ Orbital elements

Epoch: 2026-09-19T12:31:36.971616Z

Period
114.08 min
Inclination
52.0021°
Eccentricity
0.0000324
Mean motion
12.62263733 rev/d
Perigee alt
1,413.4 km
Apogee alt
1,413.9 km
Semi-major
7,791.8 km
B*
1.1193e-5
RAAN
180.9647°
Arg perigee
59.5941°
Mean anomaly
112.7979°
Rev number
73,478

§ Raw data

GLOBALSTAR M0761 37190U 10054C   26262.52195569 -.00000102  00000+0  11193-4 0  99922 37190  52.0021 180.9647 0000324  59.5941 112.7979 12.62263733734789

JSON: /api/v1/satellites/37190 · /tle

For live sub-satellite position, see the globe view (requires WebGL).

§ Visibility from observer

Set your observer location to see the next 7 days of passes ≥ 10°. The values pass through the URL so the page stays shareable.

No JS? Fill the form by hand. The geolocation button needs JavaScript.